Regional Weather Roundup
Issued by NWS

Home | Current Version | Previous Version | Graphics & Text | Print | Product List | Glossary On
Versions: 1 2 3 4 5 6 7 8 9 10 11 12 13 14 15 16 17 18 19 20 21 22 23 24 25 26 27 28 29 30 31 32 33 34 35 36 37 38 39 40 41 42 43 44 45 46 47 48 49 50
000
ASUS45 KCYS 230110
RWRWY

WYOMING REGIONAL WEATHER ROUNDUP
NATIONAL WEATHER SERVICE CHEYENNE WY
700 PM MDT SAT JUL 22 2017

NOTE:  "FAIR" INDICATES FEW OR NO CLOUDS BELOW 12,000 FEET
WITH NO SIGNIFICANT WEATHER AND/OR OBSTRUCTIONS TO VISIBILITY.

WYZ001-230200-
YELLOWSTONE NATIONAL PARK

CITY           SKY/WX    TMP DP  RH WIND       PRES   REMARKS
LK YELLOWSTONE   N/A     76  22  13 VRB3      30.38S
W YELLOWSTONE  NOT AVBL

$$
WYZ002>013-054>058-071-098>099-230200-
NORTHERN WYOMING

CITY           SKY/WX    TMP DP  RH WIND       PRES   REMARKS
JACKSON        SUNNY     79  28  15 W7        30.26S
CODY           NOT AVBL
GREYBULL       FAIR      92  26   9 N12       30.04S
WORLAND        FAIR      90  34  13 N7        30.05F
SHERIDAN       FAIR      88  33  14 W3        30.09F
BUFFALO        FAIR      83  35  18 N7        30.17S
GILLETTE       FAIR      88  30  12 N6        30.11S
HULETT         FAIR      86  32  14 NE7       30.12S
NEWCASTLE      FAIR      88  30  12 NW5       30.09S

$$
WYZ014>020-022>026-101>103-230200-
CENTRAL WYOMING

CITY           SKY/WX    TMP DP  RH WIND       PRES   REMARKS
BIG PINEY      FAIR      82  31  15 NW12      30.28F
PINEDALE       FAIR      79  28  15 N10       30.31S
DUBOIS         FAIR      79  28  15 W14       30.29S
LANDER         FAIR      87  33  14 NE6       30.12F
RIVERTON       FAIR      87  26  11 NE9       30.14S
CASPER         FAIR      88  25  10 NW5       30.15S
DOUGLAS        FAIR      88  39  17 N8        30.13R

$$
WYZ021-027>030-104>119-230200-
SOUTHERN WYOMING

CITY           SKY/WX    TMP DP  RH WIND       PRES   REMARKS
EVANSTON       FAIR      85  30  13 NW7       30.28F
KEMMERER         N/A    N/A N/A N/A NW10      30.31S
FORT BRIDGER   FAIR      87  28  12 NW14G25   30.30S
ROCK SPRINGS   FAIR      86  22   9 VRB5      30.24F
RAWLINS        FAIR      82  26  13 N12       30.27S
SARATOGA       FAIR      81  30  16 N10G17    30.29S
LARAMIE        FAIR      79  28  15 N8        30.29R
CHEYENNE       FAIR      84  46  26 E9        30.19S
TORRINGTON     FAIR      85  54  34 SE13      30.04R
PINE BLUFFS    FAIR      81  45  28 E12       30.15R

$$



USA.gov is the U.S. government's official web portal to all federal, state and local government web resources and services.